Back to catalog

FENGYUN 1C DEB

AliveSSO
NORAD 37008·DEBRIS·🇨🇳 China

Launched May 10, 1999 from Taiyuan Satellite Launch Center

Loading…

Next Passes (next 24 hours)

TLE

FreshSource: Space-Track

Epoch: Sep 13, 2026, 19:42 UTC

1 37008U 99025ECQ 26256.82102791  .00000833  00000-0  50322-3 0  9993
2 37008  99.1600  24.3771 0058590 208.7140 151.0799 14.08639742641869

Track FENGYUN 1C DEB in real time with AllMySat

Download on the App Store